Overview Statistics Trail Chart Weather Telemetry Raw packets
 

This is the latest recevied weather packets stored in our database for station/object LU3HGB-WX. If no packets are shown the sender has not sent any weather packets the latest 10 day(s).

<< 30 31 32 33 34 35 36 >>
Time Temp. Humidity Pressure Rain* Wind** Luminosity Snow
1788475359 13.33° C 24% 1018 hPa 0 mm - 0 W/m² -
1788475059 12.78° C 23% 1018 hPa 0 mm - 0 W/m² -
1788474759 13.33° C 26% 1018 hPa 0 mm - 0 W/m² -
1788474459 13.89° C 24% 1018 hPa 0 mm - 0 W/m² -
1788474159 14.44° C 23% 1018 hPa 0 mm - 0 W/m² -
1788473860 14.44° C 22% 1018 hPa 0 mm - 1 W/m² -
1788473560 15° C 22% 1017 hPa 0 mm - 2 W/m² -
1788473259 15.56° C 21% 1017 hPa 0 mm - 5 W/m² -
1788472959 15.56° C 21% 1017 hPa 0 mm - 10 W/m² -
1788472660 16.11° C 22% 1017 hPa 0 mm - 13 W/m² -
1788472359 16.11° C 21% 1017 hPa 0 mm - 20 W/m² -
1788472059 16.67° C 21% 1017 hPa 0 mm - 30 W/m² -
1788471759 16.67° C 23% 1017 hPa 0 mm - 39 W/m² -
1788471462 16.67° C 23% 1017 hPa 0 mm - 43 W/m² -
1788471160 16.67° C 24% 1017 hPa 0 mm - 37 W/m² -
1788470859 17.22° C 25% 1017 hPa 0 mm - 56 W/m² -
1788470559 17.22° C 25% 1017 hPa 0 mm - 47 W/m² -
1788470261 17.22° C 25% 1016 hPa 0 mm - 45 W/m² -
1788469959 17.78° C 26% 1016 hPa 0 mm - 47 W/m² -
1788469660 17.78° C 27% 1016 hPa 0 mm - 50 W/m² -
1788469359 18.33° C 27% 1016 hPa 0 mm - 118 W/m² -
1788469060 18.33° C 26% 1016 hPa 0 mm - 183 W/m² -
1788468759 18.89° C 26% 1016 hPa 0 mm - 202 W/m² -
1788468459 18.89° C 26% 1016 hPa 0 mm - 224 W/m² -
1788468160 18.89° C 27% 1016 hPa 0 mm - 241 W/m² -

* Rain latest hour (hover to see other rain measurements)
** Current wind speed in m/s (hover to see current wind gust speed)